Find Starlink 31686

NORAD ID: 59579 Int'l Des: 2024-076 Owner: SPXS Country: US Constellation: starlink operational
LEOCIRCULAR

Current View

Loading 3D Globe...

About Starlink 31686

Starlink 31686 (NORAD 59579) is a starlink constellation satellite (v2 mini) launched Apr 23, 2024 by SPXS of US. It operates in LEO, CIRCULAR orbit with a mass of 730.00 kg.

About Starlink 31686

Description loading...

Upcoming Passes

Passes for default location (London). Set your location on the main map for personalized predictions.

Altitude History

Loading altitude history...

Two-Line Element Set

1 59579U 24076R 26175.97170451 -.00001052 00000-0 -28714-4 0 9995
2 59579 43.0029 122.8176 0000866 283.5034 76.5721 15.27568771122919
Epoch: Jun 24, 2026 • Age: 18 hours

Current Status

Altitude 486.7 km
Velocity 7.63 km/s
Sub-Earth Point 42.53°N, 51.62°E
Launch Date Apr 23, 2024
Age 2.1 years
Type internet

Technical Details

Classification Payload
Mass 730.00 kg
Dry Mass 700.00 kg
Total Mass 730.00 kg
Length 0.30 m
Diameter 4.10 m
Span 29.00 m
Shape Box + pan
Manufacturer SPXS
Bus Type Starlink V2M
Phase Status In Orbit
Owner/State SPXS/US

Most Searched